Location: ?
(35.4064°N, 139.3593°E)
Time: 19:09:18
(UTC+00:00)

CZ-2D R/B - Pass Details

Date: 18 April 2024
Orbit: 791 x 842 km, 98.8° (Epoch: 27 May)

Event Time Altitude Azimuth Distance (km) Brightness Sun altitude
Rises 18:06:00 0° 351° (N) 3,361 5.6 -23.0°
Reaches altitude 10° 18:09:30 10° 327° (NNW) 2,434 4.6 -22.4°
Enters shadow 18:11:34 14° 304° (NW) 2,182 4.1 -22.0°
